Regional Weather Roundup
Issued by NWS Goodland, KS

Home | Current Version | Previous Version | Graphics & Text | Print | Product List | Glossary On
Versions: 1 2 3 4 5 6 7 8 9 10 11 12 13 14 15 16 17 18 19 20 21 22 23 24 25 26 27 28 29 30 31 32 33 34 35 36 37 38 39 40 41 42 43 44 45 46 47 48 49 50
000
ASUS43 KGLD 251759
RWRGLD

GOODLAND FORECAST AREA HOURLY WEATHER ROUNDUP
NATIONAL WEATHER SERVICE GOODLAND KS
1100 AM MST THU DEC 25 2014

...OFFICIAL OBSERVATIONS...

CITY           SKY/WX    TMP DP  RH WIND       PRES   REMARKS
GOODLAND KS    SUNNY     41  25  53 N7        29.43F
HILL CITY KS   SUNNY     43  23  45 SW6       29.45F
IMPERIAL NEB   SUNNY     40  24  53 N18       29.45F
MCCOOK NEB     SUNNY     36  22  56 VRB3      29.44F
AKRON CO       MOSUNNY   36  27  69 N18       29.45F
BURLINGTON CO  MOSUNNY   41  25  53 NE7       29.43S
LIMON CO       SUNNY     49  17  28 NE7       29.43F
$$

...UNOFFICIAL OBSERVATIONS...

CITY           SKY/WX    TMP DP  RH WIND       PRES   REMARKS
COLBY KS       SUNNY     43  32  65 W7        29.43F
GOVE KS          N/A     49  32  52 MISG        N/A
NORTON KS      SUNNY     39  19  45 SE7       29.44S
SHARON SPRINGS   N/A     52  25  34 SW15        N/A
TRIBUNE KS     SUNNY     59  32  36 SW23G29   29.46F
KIT CARSON CO    N/A     49  26  40 MISG        N/A
$$


USA.gov is the U.S. government's official web portal to all federal, state and local government web resources and services.